Terminal Aerodrome Forecast
Issued by NWS Charleston, WV

Current Version | Previous Version | Graphics & Text | Print | Product List | Glossary On
Versions: 1 2 3 4 5 6 7 8 9 10 11 12 13 14 15 16 17 18 19 20 21 22 23 24 25
576
FTUS41 KRLX 190301 AAA
TAFHTS
TAF AMD
KHTS 190301Z 1903/1924 22005KT P6SM SKC
     FM191800 21008G15KT P6SM SKC
     FM192300 21006KT P6SM SKC=

USA.gov is the U.S. government's official web portal to all federal, state and local government web resources and services.